This is the latest recevied weather packets stored in our database for station/object W4DEX-2. If no packets are shown the sender has not sent any weather packets the latest 10 day(s).
| Time | Temp. | Humidity | Pressure | Rain* | Wind** | Luminosity | Snow |
|---|---|---|---|---|---|---|---|
| 1777807502 | 5° C | 70% | 1018.6 hPa | 0 mm | 2.24 m/s, 160° | - | - |
| 1777807202 | 5° C | 71% | 1018.2 hPa | 0 mm | 2.68 m/s, 162° | - | - |
| 1777806302 | 5° C | 71% | 1017.9 hPa | 0 mm | 2.24 m/s, 176° | - | - |
| 1777805402 | 5° C | 71% | 1017.7 hPa | 0 mm | 4.92 m/s, 173° | - | - |
| 1777805102 | 4.44° C | 71% | 1017.6 hPa | 0 mm | 4.47 m/s, 170° | - | - |
| 1777804804 | 4.44° C | 72% | 1017.5 hPa | 0 mm | 4.02 m/s, 168° | - | - |
| 1777804502 | 4.44° C | 73% | 1017.4 hPa | 0 mm | 4.47 m/s, 173° | - | - |
| 1777804202 | 4.44° C | 72% | 1017.3 hPa | 0 mm | 5.36 m/s, 174° | - | - |
| 1777803602 | 4.44° C | 72% | 1017.1 hPa | 0 mm | 4.47 m/s, 167° | - | - |
| 1777803302 | 4.44° C | 73% | 1017.1 hPa | 0 mm | 4.92 m/s, 174° | - | - |
| 1777802402 | 5° C | 70% | 1017 hPa | 0 mm | 2.68 m/s, 180° | - | - |
| 1777802102 | 5° C | 70% | 1016.8 hPa | 0 mm | 4.92 m/s, 174° | - | - |
| 1777801802 | 5° C | 69% | 1016.8 hPa | 0 mm | 4.92 m/s, 170° | - | - |
| 1777801202 | 5° C | 69% | 1016.8 hPa | 0 mm | 4.02 m/s, 174° | - | - |
| 1777800902 | 5.56° C | 68% | 1016.8 hPa | 0 mm | 3.58 m/s, 169° | - | - |
| 1777800302 | 5.56° C | 68% | 1016.5 hPa | 0 mm | 5.36 m/s, 173° | - | - |
| 1777800002 | 5.56° C | 67% | 1016.5 hPa | 0 mm | 4.47 m/s, 169° | - | - |
| 1777799402 | 5.56° C | 67% | 1016.4 hPa | 0 mm | 1.79 m/s, 172° | - | - |
| 1777799102 | 5.56° C | 68% | 1016.6 hPa | 0 mm | 3.58 m/s, 176° | - | - |
| 1777798802 | 5.56° C | 69% | 1016.5 hPa | 0 mm | 4.47 m/s, 171° | - | - |
| 1777798202 | 5.56° C | 69% | 1016.3 hPa | 0 mm | 3.58 m/s, 167° | - | - |
| 1777797602 | 5.56° C | 68% | 1016.2 hPa | 0 mm | 3.58 m/s, 175° | - | - |
| 1777797302 | 6.11° C | 66% | 1016.2 hPa | 0 mm | 4.02 m/s, 172° | - | - |
| 1777797003 | 6.11° C | 65% | 1016 hPa | 0 mm | 4.47 m/s, 173° | - | - |
| 1777796702 | 6.11° C | 65% | 1016 hPa | 0 mm | 3.58 m/s, 176° | - | - |
* Rain latest hour (hover to see other rain measurements)
** Current wind speed in m/s (hover to see current wind gust speed)